Temperature
18 18 18 18 18 19 20 22 22 21 20 19 19 19 17 15 16 13 11 12 12 12 12 12 13 13 13 13 13 13 13 13 13 13 13 13 14 14 14 14 14 14 14 14 14 14 14 14 14
18 18 18 19 18 19 20 21 21 20 19 18 18 18 17 14 13 12 11 11 11 12 12 12 12 13 12 12 13 13 13 13 13 13 13 13 13 13 14 14 14 14 14 14 14 14 14 14 14
18 18 18 19 19 20 21 20 19 18 18 18 17 16 15 13 12 11 11 11 11 11 12 12 12 12 12 12 12 13 13 13 13 13 13 13 13 13 13 13 13 14 14 14 14 14 14 14 14
17 18 19 18 19 20 20 19 18 18 18 17 17 14 12 11 11 11 11 11 11 11 11 12 12 12 12 12 12 12 12 12 13 13 13 13 13 13 13 13 13 13 13 13 13 13 13 13 14
17 18 18 18 19 20 20 19 18 17 17 17 16 14 11 10 10 10 11 11 11 11 11 11 11 12 12 12 12 12 12 12 12 12 12 12 12 12 13 13 13 13 13 13 13 13 13 13 13
18 19 18 18 19 19 19 19 18 18 17 17 16 14 10 10 10 10 10 10 11 11 11 11 11 11 11 11 12 12 12 12 12 12 12 12 12 12 12 12 12 12 12 12 13 13 13 13 13
18 17 18 19 19 18 19 18 18 17 16 16 15 13 10 10 10 10 10 10 10 10 10 11 11 11 11 11 11 11 11 11 11 11 11 11 11 11 11 12 12 12 12 12 12 12 12 12 12
17 17 18 19 19 18 18 17 17 17 15 15 14 13 10 9 10 10 10 10 10 10 10 10 10 10 10 10 11 11 11 11 11 11 11 11 11 11 11 11 11 11 12 12 12 12 12 12 12
17 16 17 19 19 18 17 16 16 15 14 13 12 11 10 10 9 9 9 9 9 10 10 10 10 10 10 10 10 10 10 10 10 10 10 10 10 10 10 10 11 11 11 11 11 11 11 12 12
17 15 17 17 18 17 16 16 14 14 13 12 10 10 10 9 9 9 9 9 9 9 9 9 9 9 10 10 10 10 10 10 10 10 10 10 10 10 10 10 10 10 11 11 11 11 11 11 11
16 16 16 16 16 16 15 15 14 14 13 12 10 9 9 9 9 8 8 8 8 9 9 9 9 9 9 9 9 9 9 9 9 9 9 9 9 9 9 10 10 10 10 10 10 10 11 11 11
16 15 15 14 14 15 15 14 13 13 12 11 11 9 9 8 8 8 8 8 8 8 8 8 9 9 9 9 9 9 9 9 9 9 9 9 9 9 9 9 9 9 9 10 10 10 10 10 10
15 14 13 13 13 14 14 13 12 11 10 10 10 9 8 8 8 8 7 7 8 8 8 8 8 8 8 8 8 8 8 8 8 8 8 8 8 8 8 8 8 8 9 9 9 9 9 9 9
14 13 13 12 12 13 13 12 11 10 10 9 9 8 8 7 7 7 7 7 7 7 7 7 7 7 8 8 8 7 7 7 8 8 8 8 8 8 8 8 8 8 8 8 8 8 8 8 9
13 12 12 12 12 12 12 11 10 10 9 9 8 8 7 7 7 7 7 7 7 7 7 7 7 7 7 7 7 7 7 7 7 7 7 7 7 7 7 7 7 7 7 7 7 8 8 8 8
14 13 12 12 12 12 11 11 11 10 9 8 8 7 7 7 6 6 6 6 6 6 6 6 6 7 6 6 6 6 6 6 6 6 6 6 6 7 7 7 7 7 7 7 7 7 7 7 7
13 13 13 12 12 12 11 11 10 9 9 8 8 7 7 6 6 6 6 6 5 5 6 6 6 6 6 6 6 6 6 6 6 6 6 6 6 6 6 6 6 6 6 6 6 6 6 6 6
13 13 14 13 12 11 10 11 9 9 9 8 8 7 6 6 6 5 5 5 5 5 5 5 5 5 5 5 5 5 5 5 5 5 5 5 5 5 5 5 5 5 5 5 5 5 5 5 6
14 14 14 13 11 11 10 11 10 9 8 8 8 7 6 6 5 5 5 4 4 4 4 4 5 5 5 5 5 5 5 5 5 5 5 5 5 4 4 4 4 4 4 4 4 4 5 5 5
13 13 13 12 11 11 10 10 10 9 8 8 8 7 7 6 5 4 4 4 4 4 4 4 4 4 4 4 4 4 4 4 4 4 4 4 4 4 4 3 4 4 4 4 4 4 4 4 4
12 12 12 11 10 10 9 9 10 9 9 8 8 7 7 6 5 4 3 3 3 3 3 3 3 3 4 4 4 4 3 3 3 3 3 3 3 3 3 3 3 3 3 3 3 3 3 3 3
11 12 11 10 9 8 9 7 10 9 8 7 7 7 6 6 5 4 3 3 3 3 3 3 3 3 3 3 3 3 3 3 2 2 2 2 2 2 2 2 2 2 2 2 2 2 2 2 2
10 10 10 10 9 9 9 8 8 9 8 7 7 6 6 5 5 4 3 3 2 2 2 2 2 2 2 2 2 2 2 2 2 2 2 2 2 2 2 1 1 1 1 1 1 1 1 1 1
9 9 9 9 8 7 8 8 8 8 8 7 7 6 6 5 4 3 3 2 2 1 1 1 1 2 2 2 2 2 2 1 1 1 1 1 1 1 1 1 1 1 1 1 1 1 1 1 1
8 8 7 7 6 7 9 8 8 8 8 7 6 6 5 5 4 3 2 1 1 1 1 1 1 1 1 1 1 1 1 1 1 1 1 0 0 0 0 0 0 0 0 0 0 0 0 0 0
7 8 7 7 7 7 7 7 7 7 6 7 6 5 5 4 3 2 2 1 1 1 0 0 0 0 0 0 0 0 0 0 0 -0 -0 -0 -0 -0 -0 -0 -0 -0 -0 -1 -1 -1 -0 -0 -0
7 7 8 7 7 7 7 7 6 5 5 5 5 4 4 3 3 2 1 1 0 0 0 -0 -0 -0 -0 -0 -0 -0 -0 -1 -1 -1 -1 -1 -1 -1 -1 -1 -1 -1 -1 -1 -1 -1 -1 -1 -1
7 7 6 6 6 6 8 7 6 4 4 4 3 3 3 3 2 1 1 0 0 -0 -0 -1 -1 -1 -1 -1 -1 -1 -1 -1 -1 -1 -2 -2 -2 -2 -2 -2 -2 -2 -2 -2 -2 -2 -2 -2 -2
6 6 6 6 6 6 6 7 7 5 5 4 3 3 3 2 2 1 0 -0 -1 -1 -1 -1 -1 -1 -1 -1 -1 -1 -1 -2 -2 -2 -2 -2 -2 -2 -3 -3 -3 -3 -3 -3 -3 -3 -3 -3 -2
6 6 6 5 5 6 5 5 5 5 5 4 3 3 2 2 1 1 -0 -1 -1 -1 -2 -2 -2 -2 -2 -2 -2 -2 -2 -2 -2 -3 -3 -3 -3 -3 -3 -3 -3 -3 -3 -3 -3 -3 -3 -3 -3
Wind_Speed
14 11 5 2 3 4 5 1 4 6 5 6 8 6 8 8 6 8 3 6 6 6 10 11 11 12 13 13 14 14 14 14 14 14 14 14 14 14 14 14 13 13 13 13 13 12 12 12 12
11 6 3 3 4 5 3 3 6 6 7 5 5 6 7 8 8 7 4 5 6 9 11 11 12 13 13 13 13 13 13 14 14 14 14 14 14 14 14 13 13 13 13 13 12 12 12 12 11
8 5 3 3 4 4 0 6 10 9 8 4 4 7 6 6 6 5 4 4 7 10 12 12 13 13 13 13 13 13 13 13 14 14 14 13 14 13 13 13 13 13 13 12 12 12 12 11 11
4 3 3 4 7 2 3 8 9 7 5 4 6 7 6 7 5 5 5 6 8 10 13 12 13 13 13 13 13 12 12 12 13 13 13 13 13 13 13 13 13 12 12 11 11 11 11 11 10
3 3 4 5 5 1 6 8 7 6 5 4 5 7 6 5 8 7 5 6 8 9 11 12 12 12 13 13 13 12 12 12 12 12 12 12 13 13 13 13 13 12 11 11 11 10 10 10 9
3 3 4 6 4 3 5 6 4 5 6 4 4 6 6 6 7 6 6 7 9 9 11 11 12 12 12 13 13 12 12 12 11 11 11 12 12 12 12 12 12 12 12 12 11 10 10 9 8
3 3 5 6 3 3 4 5 3 4 6 4 2 5 7 6 5 6 6 7 9 10 10 10 11 11 11 12 13 13 12 12 12 12 11 11 11 11 11 11 12 12 12 12 12 11 10 9 8
4 3 5 5 3 3 5 4 2 3 5 4 4 4 5 5 5 6 7 7 7 8 8 9 9 9 9 10 11 12 12 12 11 11 11 10 10 10 10 11 11 11 11 11 11 11 10 9 8
3 3 4 3 2 3 7 4 3 5 6 5 5 6 8 10 7 6 6 6 6 7 7 8 9 10 9 8 9 9 11 11 10 10 9 9 9 9 9 10 11 11 11 10 11 10 10 9 8
2 3 2 4 5 4 7 5 4 4 4 4 6 9 10 9 7 6 5 5 5 5 5 7 8 9 9 8 8 8 8 9 10 10 10 8 8 9 8 8 9 9 10 10 10 9 9 9 8
2 2 1 4 7 5 6 5 4 5 4 4 7 9 9 8 7 6 5 5 5 4 5 5 6 7 8 7 7 7 8 8 9 11 11 9 9 8 8 7 7 8 8 9 9 9 8 8 8
1 2 3 3 5 2 4 4 4 2 3 5 8 11 9 8 7 6 5 5 5 5 5 5 6 6 7 7 6 7 7 7 8 9 11 10 8 8 7 6 7 7 7 8 8 7 8 8 7
4 1 2 2 2 1 2 3 3 3 4 6 9 9 8 7 6 5 5 5 5 5 4 4 4 5 6 6 6 7 7 8 8 8 9 10 7 6 7 6 7 8 8 7 7 7 7 7 7
1 3 2 2 2 2 3 3 3 5 6 7 8 8 7 6 6 5 5 4 4 4 4 3 4 5 5 5 5 6 6 7 8 8 9 9 8 7 6 6 6 7 8 7 7 7 6 6 6
3 3 3 5 5 4 3 5 6 8 8 8 7 7 7 6 6 5 5 4 4 4 3 3 3 4 4 4 4 5 6 7 7 7 9 9 9 8 7 5 6 7 8 8 6 6 6 5 5
5 4 4 6 7 4 5 6 6 9 9 8 7 7 6 6 6 5 5 4 4 4 4 3 3 3 4 4 4 5 6 6 6 7 8 9 10 9 7 5 5 8 8 7 5 3 3 4 4
5 5 5 4 7 5 6 5 6 8 9 8 7 7 6 6 5 5 5 5 4 4 4 3 3 3 3 3 4 4 5 6 6 7 7 8 9 10 8 6 6 8 7 6 5 3 3 4 4
4 6 6 6 6 5 7 6 6 8 8 8 8 7 7 7 6 5 5 5 5 4 4 3 3 2 2 2 2 2 3 4 6 6 7 8 9 9 8 6 7 7 4 3 4 4 3 3 4
6 7 7 1 3 5 9 9 7 8 8 7 7 8 7 7 6 6 5 5 5 4 4 3 3 2 2 1 1 1 2 2 3 5 6 8 8 8 8 6 6 6 3 3 4 3 3 3 3
8 8 6 1 2 4 7 10 7 9 10 8 8 8 8 7 7 7 6 5 4 4 3 3 2 2 2 1 1 1 1 1 1 3 5 7 8 8 7 7 5 5 4 4 4 4 3 3 3
8 7 6 2 1 4 6 7 7 6 7 7 6 6 6 7 8 8 7 5 5 4 3 2 2 2 2 2 2 1 1 1 1 2 2 5 6 7 7 7 6 5 4 3 4 3 3 3 3
6 3 3 2 1 4 4 5 5 7 8 8 7 5 5 6 6 8 7 7 5 4 3 3 2 2 2 2 2 1 1 1 1 1 1 2 5 6 6 6 6 5 4 4 4 4 3 3 3
1 3 2 4 5 5 5 5 6 5 6 8 7 6 5 5 6 7 7 7 5 5 4 3 3 2 2 2 1 1 1 0 1 1 1 1 3 4 5 5 5 5 4 4 4 4 3 2 3
2 1 1 2 3 6 7 7 6 4 6 6 6 5 5 5 6 6 6 6 5 5 4 3 3 2 2 2 1 1 1 0 1 1 1 1 1 2 4 5 5 5 5 4 4 4 4 3 4
1 1 0 1 4 7 3 5 5 1 3 5 6 5 5 5 6 6 6 6 5 5 4 4 3 2 2 2 1 1 0 0 1 1 1 1 1 2 2 4 4 4 5 6 5 4 4 4 4
5 4 4 5 5 4 2 6 3 3 5 6 6 5 5 5 5 5 6 5 5 5 5 4 3 3 2 2 1 1 0 0 1 1 1 1 1 1 2 3 4 5 5 6 6 4 5 4 4
4 5 2 1 4 4 6 4 1 4 4 5 5 5 4 4 5 5 5 4 5 5 4 4 4 3 2 2 1 1 0 1 1 1 1 1 1 2 3 3 4 5 5 5 5 4 5 5 5
2 1 2 3 4 6 6 6 5 6 6 5 4 4 4 4 4 4 4 4 4 3 3 3 3 3 2 1 1 1 0 1 1 2 2 2 2 2 3 3 4 4 4 5 4 4 5 5 5
4 3 4 4 4 4 5 4 0 6 7 6 5 5 5 5 4 4 4 3 3 2 2 2 2 2 2 1 1 1 1 1 2 2 2 2 2 2 3 3 4 4 4 4 4 5 6 6 6
4 6 6 5 6 5 4 5 2 4 5 4 4 5 5 5 4 4 4 3 3 2 2 2 1 1 1 1 1 1 1 1 2 2 3 2 3 3 3 4 4 5 5 5 5 6 6 6 7
Wind_Direction
301 275 255 266 248 236 237 158 88 85 66 40 37 49 59 44 43 104 104 48 45 59 71 66 59 62 57 55 53 52 50 49 48 49 50 50 49 48 47 47 46 45 45 45 45 44 43 44 47
294 285 264 244 244 245 216 139 106 85 87 82 53 60 74 72 70 92 71 41 54 65 67 62 61 63 59 56 55 52 50 50 50 49 49 48 47 46 45 45 45 44 43 42 43 42 41 42 44
277 270 260 242 241 270 61 92 92 86 93 95 71 43 52 68 76 80 64 47 64 67 67 61 61 61 59 57 55 53 50 50 51 49 48 49 47 46 44 44 43 42 40 41 41 40 40 39 39
276 243 244 253 255 325 56 94 103 107 96 77 101 88 69 43 56 77 72 61 68 66 67 61 61 59 58 57 54 54 54 52 50 49 49 49 49 48 45 43 42 42 38 36 36 36 36 35 33
244 250 234 242 249 55 68 94 116 127 132 124 107 106 92 65 76 83 71 63 70 68 68 63 60 59 57 55 54 55 57 55 50 48 49 48 47 47 44 41 41 41 38 34 31 31 32 32 28
258 248 238 234 210 127 104 114 136 129 120 113 101 108 103 102 86 81 73 65 67 67 66 63 60 62 59 54 53 53 53 52 50 48 48 47 45 45 42 40 40 38 36 33 29 28 27 28 23
269 257 254 256 200 148 124 118 143 132 119 112 96 108 121 105 89 92 83 71 66 65 65 61 56 58 59 57 53 53 52 50 49 46 44 45 43 41 39 37 37 35 32 30 27 25 24 23 20
301 285 256 256 221 161 123 121 81 94 105 71 47 119 135 126 112 99 89 77 70 61 56 53 53 53 54 56 55 55 51 49 49 46 41 38 37 36 37 34 31 30 28 26 23 20 19 17 13
289 270 258 273 251 131 127 128 78 57 87 79 56 51 105 121 120 106 95 81 71 61 50 46 43 42 44 53 54 55 51 44 42 39 37 36 31 29 33 30 29 26 24 21 18 15 13 9 4
233 245 273 349 2 105 136 136 132 130 122 116 100 87 106 117 121 118 106 92 75 62 52 45 41 36 34 40 48 48 50 43 38 32 28 28 29 27 30 25 25 21 18 15 13 10 7 3 360
224 257 357 15 18 82 133 139 150 172 179 165 148 134 131 130 128 123 111 101 90 77 57 47 45 40 37 36 44 45 47 44 38 32 25 23 29 28 28 22 20 12 13 10 8 6 2 1 5
235 6 16 28 14 65 135 140 155 170 75 86 126 140 140 141 140 132 119 106 94 83 67 50 45 45 39 37 41 47 44 43 41 34 29 25 22 18 16 20 14 12 11 8 4 1 358 359 359
219 169 54 57 46 77 136 164 155 142 107 96 116 132 142 142 136 123 114 107 99 90 75 57 47 48 43 40 38 46 42 38 40 35 31 27 25 15 10 12 13 12 9 7 356 355 357 354 354
117 120 147 162 157 182 181 175 168 174 144 132 136 140 145 143 133 120 116 111 105 100 91 69 55 50 52 50 46 47 47 44 42 38 30 24 23 18 12 9 10 10 5 1 355 355 350 347 350
131 156 198 197 189 180 181 219 206 163 155 155 154 151 148 143 135 134 135 125 117 109 99 84 71 53 54 54 50 53 51 48 43 39 33 25 22 16 13 9 5 2 357 354 355 355 353 355 354
207 213 218 185 180 168 198 243 173 153 160 164 163 159 156 151 147 139 128 119 114 107 95 79 68 56 54 53 54 54 51 48 45 42 35 23 19 13 11 9 2 358 356 354 351 1 357 352 348
205 236 232 181 184 173 215 244 149 158 171 177 176 171 166 159 152 135 125 121 114 107 100 86 67 63 54 67 71 67 60 50 45 44 38 25 18 14 11 3 1 359 356 355 355 0 357 347 344
218 238 240 203 187 195 227 242 172 170 184 189 182 177 174 170 163 143 131 124 115 110 106 98 83 69 58 78 84 78 66 53 48 44 34 29 21 15 8 2 1 0 356 353 352 345 346 343 335
292 272 263 274 152 212 238 246 210 180 192 201 191 182 177 171 155 144 139 128 117 112 111 110 95 68 53 62 76 70 53 41 38 38 35 29 22 14 9 1 0 358 353 344 343 339 335 335 336
266 272 276 354 137 246 262 259 228 193 196 198 192 185 179 166 157 154 148 141 138 137 132 127 114 98 66 42 48 92 102 81 74 39 35 27 19 15 9 5 360 357 353 347 348 348 334 329 351
252 252 263 262 300 252 280 277 219 192 183 185 187 179 170 174 171 166 162 157 154 153 152 151 132 102 80 54 47 57 75 55 39 33 34 23 15 13 12 3 357 353 355 344 338 340 340 324 325
255 268 274 265 228 248 201 277 238 190 183 187 190 188 179 170 167 167 166 164 165 159 150 141 131 111 98 88 77 82 98 57 9 46 29 18 15 9 4 5 355 348 348 342 336 345 327 321 312
299 351 283 252 244 272 224 241 271 173 187 199 192 189 179 167 161 163 164 164 159 149 146 141 127 114 103 90 86 53 49 66 22 37 23 6 9 7 360 359 351 343 342 340 337 332 320 306 295
113 11 332 279 247 254 223 214 263 200 193 182 182 176 170 161 154 150 148 145 144 141 139 139 137 128 114 107 87 92 64 38 11 359 342 332 339 353 353 352 351 344 338 332 325 321 312 300 289
200 120 110 248 231 244 210 215 241 162 116 145 159 163 160 151 146 147 150 153 151 150 150 151 155 149 142 138 128 127 146 316 273 280 305 321 323 328 337 343 340 334 329 325 319 310 306 299 291
214 204 189 215 236 254 220 230 228 102 78 94 106 124 130 136 141 146 150 155 159 161 162 165 167 165 161 156 148 120 65 319 296 277 279 284 290 291 313 322 320 318 320 318 316 306 299 301 294
193 228 264 272 285 268 238 226 232 110 107 111 114 118 128 135 139 141 144 151 155 163 171 172 168 163 159 149 128 139 144 340 315 297 284 268 279 297 315 315 311 310 309 306 304 296 297 298 296
272 261 148 190 228 254 255 231 217 185 189 168 157 155 145 133 135 140 146 148 150 159 162 163 158 158 155 146 171 224 265 287 303 301 289 287 290 306 303 300 298 299 301 301 296 293 292 295 293
185 216 213 218 228 226 263 261 43 166 165 170 177 166 156 146 148 147 145 140 132 129 139 143 145 139 149 171 191 213 262 291 301 298 285 284 288 294 287 289 292 291 294 292 291 290 292 292 292
212 209 193 198 237 227 255 266 23 73 114 135 147 148 144 140 140 137 134 131 132 135 140 142 144 154 184 196 203 228 258 273 281 288 289 288 287 289 287 287 286 287 289 287 283 286 289 286 287
Height
1507 1507 1509 1511 1513 1514 1510 1503 1500 1505 1509 1514 1514 1516 1520 1526 1530 1542 1543 1541 1541 1541 1541 1540 1541 1541 1541 1541 1541 1541 1541 1541 1541 1541 1541 1541 1541 1541 1541 1541 1541 1541 1541 1541 1541 1541 1541 1542 1542
1506 1508 1511 1511 1513 1517 1509 1502 1504 1508 1513 1516 1518 1520 1523 1530 1534 1538 1539 1540 1540 1540 1540 1541 1541 1541 1541 1541 1541 1542 1542 1541 1541 1542 1542 1541 1541 1541 1541 1541 1541 1541 1542 1542 1542 1542 1542 1542 1542
1507 1508 1511 1509 1510 1512 1507 1503 1507 1511 1515 1517 1520 1523 1527 1533 1536 1537 1539 1540 1540 1540 1540 1541 1541 1541 1541 1541 1541 1542 1542 1542 1542 1542 1542 1542 1541 1541 1541 1541 1541 1541 1541 1542 1542 1542 1542 1542 1542
1508 1510 1510 1511 1509 1505 1503 1506 1509 1513 1517 1519 1521 1527 1531 1535 1536 1537 1539 1540 1540 1540 1540 1541 1541 1541 1541 1541 1542 1542 1542 1542 1542 1542 1542 1542 1541 1541 1541 1541 1541 1541 1541 1541 1542 1542 1542 1542 1542
1509 1509 1510 1511 1507 1505 1504 1507 1511 1514 1517 1520 1522 1527 1533 1536 1536 1537 1538 1539 1539 1540 1540 1540 1541 1541 1541 1541 1542 1542 1542 1542 1542 1542 1542 1541 1541 1541 1541 1541 1541 1541 1541 1541 1541 1541 1542 1542 1542
1510 1507 1511 1512 1506 1505 1507 1509 1512 1514 1518 1521 1523 1527 1534 1536 1536 1537 1538 1539 1539 1539 1540 1540 1540 1541 1541 1541 1542 1542 1542 1542 1542 1541 1541 1541 1541 1541 1541 1541 1541 1541 1541 1541 1541 1541 1541 1541 1542
1509 1507 1508 1505 1505 1506 1508 1510 1513 1515 1518 1522 1524 1528 1532 1534 1535 1536 1537 1538 1538 1539 1539 1540 1540 1540 1541 1541 1541 1541 1541 1541 1541 1541 1541 1541 1541 1541 1540 1540 1540 1540 1540 1540 1540 1541 1541 1541 1541
1507 1507 1505 1503 1504 1506 1508 1511 1514 1516 1519 1522 1524 1527 1531 1533 1534 1535 1536 1537 1538 1538 1539 1539 1539 1540 1540 1541 1541 1541 1541 1541 1541 1540 1540 1540 1540 1540 1540 1540 1540 1539 1539 1539 1540 1540 1540 1540 1541
1507 1510 1508 1503 1502 1505 1508 1512 1515 1517 1519 1522 1524 1526 1528 1530 1533 1534 1535 1536 1537 1538 1538 1539 1539 1539 1540 1540 1540 1540 1540 1540 1540 1540 1540 1539 1539 1539 1539 1539 1539 1539 1538 1538 1539 1539 1539 1539 1539
1507 1511 1506 1504 1502 1503 1508 1512 1515 1518 1521 1524 1526 1527 1528 1529 1531 1533 1534 1535 1536 1537 1538 1538 1538 1539 1539 1539 1539 1539 1540 1539 1539 1539 1539 1539 1539 1538 1538 1538 1538 1538 1537 1537 1537 1537 1538 1538 1538
1505 1507 1505 1505 1504 1505 1509 1512 1515 1517 1520 1521 1523 1525 1527 1529 1530 1532 1533 1534 1535 1536 1537 1537 1538 1538 1538 1538 1538 1539 1539 1539 1539 1539 1538 1538 1538 1537 1537 1537 1537 1536 1536 1536 1536 1536 1536 1536 1537
1505 1506 1506 1507 1507 1508 1510 1513 1516 1517 1519 1519 1520 1522 1525 1527 1529 1530 1532 1533 1534 1535 1536 1536 1537 1537 1537 1538 1538 1538 1538 1537 1538 1537 1537 1537 1537 1536 1536 1536 1535 1535 1534 1534 1534 1534 1534 1535 1535
1505 1507 1508 1509 1509 1510 1511 1513 1515 1517 1518 1519 1520 1522 1524 1526 1528 1529 1531 1532 1533 1534 1534 1535 1536 1536 1536 1536 1537 1537 1537 1537 1536 1536 1536 1536 1536 1535 1535 1534 1534 1534 1533 1533 1532 1532 1532 1532 1533
1504 1506 1508 1509 1509 1510 1511 1513 1514 1515 1517 1518 1520 1521 1523 1525 1526 1528 1529 1530 1531 1532 1533 1534 1534 1535 1535 1535 1536 1536 1536 1536 1535 1535 1535 1535 1535 1534 1534 1533 1533 1532 1532 1531 1531 1530 1530 1530 1531
1505 1507 1508 1508 1508 1509 1511 1513 1511 1512 1514 1517 1519 1520 1522 1524 1525 1526 1527 1528 1529 1530 1531 1532 1533 1533 1534 1534 1534 1534 1535 1534 1534 1534 1534 1533 1533 1533 1532 1532 1531 1531 1530 1530 1529 1529 1528 1528 1528
1504 1506 1507 1504 1506 1508 1513 1510 1507 1509 1512 1515 1517 1519 1521 1522 1523 1525 1526 1527 1527 1528 1529 1530 1531 1532 1532 1533 1533 1533 1533 1533 1533 1533 1532 1532 1531 1531 1530 1530 1530 1529 1528 1528 1527 1526 1526 1526 1526
1504 1505 1501 1503 1503 1505 1508 1506 1506 1507 1510 1513 1515 1517 1518 1520 1521 1522 1523 1525 1526 1526 1527 1528 1529 1530 1531 1531 1531 1532 1532 1532 1531 1531 1531 1530 1530 1529 1528 1528 1527 1527 1526 1526 1525 1525 1524 1523 1523
1502 1500 1495 1498 1501 1503 1505 1503 1505 1505 1507 1510 1512 1514 1515 1517 1518 1520 1521 1522 1524 1524 1525 1526 1527 1528 1529 1529 1530 1530 1530 1530 1530 1529 1529 1528 1528 1527 1526 1526 1525 1525 1524 1524 1523 1523 1522 1522 1521
1493 1493 1493 1495 1497 1501 1501 1499 1500 1502 1505 1506 1508 1510 1512 1514 1516 1517 1519 1520 1521 1522 1523 1523 1524 1525 1526 1527 1527 1528 1527 1527 1527 1527 1527 1526 1526 1525 1524 1524 1523 1523 1522 1522 1521 1520 1520 1519 1519
1493 1495 1494 1497 1498 1500 1499 1496 1495 1497 1498 1501 1503 1506 1508 1511 1513 1514 1516 1517 1518 1519 1520 1521 1522 1523 1524 1524 1525 1525 1526 1525 1525 1525 1525 1524 1524 1523 1523 1522 1521 1520 1520 1519 1519 1518 1517 1517 1517
1493 1495 1495 1497 1501 1500 1500 1497 1492 1492 1494 1498 1500 1502 1504 1507 1508 1510 1512 1513 1515 1516 1517 1518 1519 1520 1521 1522 1523 1523 1523 1523 1523 1523 1522 1522 1521 1520 1520 1520 1519 1518 1518 1517 1516 1516 1515 1514 1514
1495 1492 1493 1497 1504 1504 1502 1508 1488 1487 1491 1494 1496 1499 1501 1503 1505 1507 1508 1510 1512 1513 1515 1516 1517 1518 1519 1519 1520 1520 1520 1520 1520 1520 1519 1519 1519 1518 1518 1517 1516 1516 1515 1515 1514 1513 1513 1512 1512
1494 1493 1494 1496 1499 1502 1499 1505 1492 1484 1489 1490 1492 1495 1497 1500 1502 1504 1506 1507 1509 1511 1512 1514 1515 1516 1516 1517 1517 1517 1518 1518 1518 1517 1517 1517 1516 1516 1515 1515 1514 1513 1513 1512 1511 1511 1510 1510 1509
1495 1495 1496 1497 1500 1507 1495 1500 1491 1485 1483 1485 1488 1491 1494 1497 1499 1502 1504 1506 1507 1509 1510 1511 1512 1513 1514 1514 1515 1515 1515 1515 1515 1514 1514 1514 1513 1513 1512 1512 1511 1510 1510 1509 1508 1508 1507 1506 1506
1495 1501 1508 1510 1510 1501 1487 1490 1489 1480 1478 1480 1484 1488 1491 1494 1497 1499 1501 1503 1504 1505 1507 1508 1509 1510 1511 1511 1512 1512 1512 1512 1512 1511 1511 1511 1510 1509 1509 1508 1507 1507 1506 1505 1505 1504 1503 1503 1502
1496 1496 1506 1510 1504 1495 1491 1492 1485 1480 1480 1481 1484 1486 1489 1492 1494 1496 1498 1500 1501 1503 1504 1505 1506 1507 1508 1508 1509 1509 1509 1509 1508 1508 1508 1507 1507 1506 1505 1505 1504 1503 1502 1502 1501 1500 1499 1498 1498
1494 1496 1492 1498 1495 1496 1490 1484 1485 1481 1482 1483 1484 1486 1488 1490 1492 1494 1496 1498 1499 1500 1501 1502 1503 1504 1505 1505 1505 1506 1506 1506 1505 1505 1504 1504 1503 1503 1502 1501 1500 1499 1498 1497 1497 1496 1495 1494 1493
1492 1491 1497 1501 1503 1498 1483 1480 1482 1483 1482 1483 1484 1485 1487 1489 1491 1493 1494 1496 1497 1498 1499 1500 1501 1501 1502 1502 1502 1502 1502 1502 1502 1501 1501 1500 1499 1499 1498 1497 1496 1495 1494 1493 1492 1491 1490 1489 1488
1493 1493 1492 1493 1492 1496 1491 1484 1473 1474 1475 1479 1481 1483 1485 1487 1489 1491 1492 1493 1495 1496 1497 1497 1498 1498 1498 1499 1499 1499 1499 1499 1498 1498 1497 1496 1495 1494 1493 1493 1492 1491 1490 1489 1487 1486 1485 1484 1483
1486 1486 1489 1496 1493 1489 1491 1487 1475 1473 1474 1477 1480 1482 1484 1486 1488 1489 1491 1492 1492 1493 1494 1494 1494 1495 1495 1495 1495 1495 1495 1495 1494 1494 1493 1492 1491 1490 1489 1488 1487 1486 1485 1484 1483 1481 1480 1479 1478